[[{"header":{"parameterUnit":"m.s-1","parameterCategory":1,"la1":30.2991,"la2":30.254,"lo1":-89.0895,"lo2":-89.0444,"dy":0.0017,"dx":0.0017,"nx":28,"ny":28,"refTime":"2025-06-02T21:00:00:Z","depth":0,"parameterNumber":2,"parameterNumberName":"U-component_of_WINDS"},"data":[0,0,0,0,0,0,0,0,0,0,0,0,0,0,0,0,0,0,0,0,0,0,0,0,0,0,0,0,0,0,0,0,0,0,0,0,0,0,0,0,0,0,0,0,0,0,0,0,0,0,0,0,0,0,0,0,0,0,-5.7856,-5.7856,0,-5.7837,-5.7837,-5.7837,-5.7732,-5.773,-5.7727,-5.7725,-5.7706,-5.7708,-5.771,0,0,0,0,0,0,0,0,0,0,0,0,0,-5.7804,-5.7806,-5.7856,-5.7856,-5.7855,-5.7837,-5.7837,-5.7837,-5.7733,-5.7729,-5.7726,-5.7724,-5.7706,-5.7708,-5.771,0,0,0,0,0,0,0,0,0,0,0,0,0,-5.781,-5.7806,-5.7856,-5.7801,-5.7796,-5.7837,-5.7837,-5.7837,-5.7733,-5.7729,-5.7726,-5.7722,-5.7705,-5.7708,-5.7711,-5.7803,0,0,-5.7719,-5.772,0,0,0,0,0,0,0,0,-5.781,-5.7812,-5.781,-5.7805,-5.7799,-5.7783,-5.7812,-5.7825,-5.7734,-5.7757,-5.7725,-5.772,-5.7735,-5.7735,-5.774,-5.7802,-5.7801,-5.7719,-5.7721,-5.7722,-5.7723,0,0,0,0,0,0,0,-5.781,-5.7812,-5.7848,-5.781,-5.7804,-5.7779,-5.7775,-5.7814,-5.7768,-5.7755,-5.7747,-5.7746,-5.7732,-5.7738,-5.7739,-5.7801,-5.7719,-5.7722,-5.7723,-5.7725,-5.794,-5.7944,0,0,0,0,0,0,-5.7817,-5.7813,-5.7849,-5.7848,-5.7796,-5.7783,-5.7779,-5.7792,-5.7767,-5.7759,-5.775,-5.7742,-5.7735,-5.7736,-5.7738,-5.7844,-5.7722,-5.7725,-5.7726,-5.7936,-5.7941,-5.7945,0,0,0,0,0,0,-5.7816,-5.7821,-5.785,-5.7828,-5.783,-5.7787,-5.7803,-5.7794,-5.7799,-5.7763,-5.7754,-5.7764,-5.7732,-5.7734,-5.7788,-5.7842,-5.7726,-5.7729,-5.7931,-5.7938,-5.7943,-5.8059,0,0,0,0,0,0,-5.7815,-5.7821,-5.7855,-5.783,-5.7832,-5.79,-5.7807,-5.7796,-5.7804,-5.7794,-5.7774,-5.7767,-5.7729,-5.7784,-5.7791,-5.7844,-5.7731,-5.7926,-5.7934,-5.7941,-5.805,-5.8068,-5.8084,0,0,0,0,0,-5.7813,-5.7888,-5.7857,-5.7862,-5.7873,-5.7903,-5.7904,-5.7858,-5.7809,-5.7843,-5.782,-5.7768,-5.7836,-5.7791,-5.7797,-5.7852,-5.7922,-5.7932,-5.7941,-5.8042,-5.8065,-5.8083,0,0,0,0,0,0,-5.792,-5.7884,-5.7849,-5.7918,-5.7915,-5.7885,-5.7926,-5.7883,-5.7894,-5.7883,-5.7827,-5.7823,-5.7886,-5.7874,-5.7825,-5.7941,-5.787,-5.7881,-5.7946,-5.7966,-5.7983,-5.7983,-5.7733,0,0,0,0,0,-5.7952,-5.7979,-5.7946,-5.801,-5.801,-5.7969,-5.7981,-5.7946,-5.794,-5.7938,-5.7919,-5.7916,-5.7936,-5.7951,-5.7968,-5.8049,-5.8043,-5.809,-5.8107,-5.8121,-5.8131,-5.8173,-5.8194,-5.7975,-5.7975,-5.7975,0,0,-5.8017,-5.8001,-5.8021,-5.8031,-5.8024,-5.8054,-5.7968,-5.8003,-5.8025,-5.7943,-5.7993,-5.798,-5.7972,-5.8041,-5.807,-5.8033,-5.819,-5.8133,-5.8144,-5.8146,-5.8185,-5.8206,-5.8224,-5.7982,-5.798,-5.7979,0,0,-5.8151,-5.8142,-5.8194,-5.819,-5.8181,-5.8154,-5.8167,-5.8145,-5.8133,-5.8182,-5.8122,-5.8148,-5.8185,-5.8183,-5.8186,-5.8324,-5.8276,-5.8331,-5.8419,-5.8461,-5.8478,-5.8493,-5.8542,-5.856,-5.8341,-5.8342,-5.8342,0,-5.8233,-5.8275,-5.8227,-5.8266,-5.8273,-5.8201,-5.8255,-5.8253,-5.8251,-5.8257,-5.8217,-5.8263,-5.8253,-5.832,-5.8354,-5.836,-5.8373,-5.8332,-5.848,-5.8494,-5.8508,-5.8553,-5.8572,-5.8348,-5.8348,-5.8347,-5.8346,0,-5.8377,-5.8408,-5.8451,-5.8451,-5.8463,-5.8509,-5.8469,-5.8487,-5.8453,-5.843,-5.8483,-5.8469,-5.8482,-5.8496,-5.8463,-5.856,-5.8537,-5.849,-5.8417,-5.8536,-5.8578,-5.8595,-5.8358,-5.8356,-5.8354,-5.8352,0,0,-5.8574,-5.8549,-5.8565,-5.8565,-5.8552,-5.8575,-5.862,-5.8633,-5.865,-5.8652,-5.8688,-5.8722,-5.8679,-5.8683,-5.865,-5.8687,-5.8797,-5.8635,-5.8634,-5.8665,-5.8903,-5.8938,-5.8959,-5.8767,-5.877,-5.8772,-5.8903,0,-5.8701,-5.8774,-5.8733,-5.8812,-5.8841,-5.8776,-5.8814,-5.8811,-5.8793,-5.8815,-5.8794,-5.882,-5.876,-5.8763,-5.8797,-5.8777,-5.8844,-5.8767,-5.8799,-5.8801,-5.8801,-5.8981,-5.9017,-5.9141,-5.892,-5.8922,-5.8924,0,-5.8859,-5.8868,-5.895,-5.8934,-5.8944,-5.8979,-5.899,-5.9012,-5.9008,-5.8992,-5.8999,-5.8957,-5.9,-5.8931,-5.899,-5.8939,-5.895,-5.8943,-5.8947,-5.8946,-5.8868,-5.8984,-5.918,-5.9198,-5.895,-5.8948,-5.8946,0,-5.8993,-5.9027,-5.908,-5.9083,-5.9065,-5.9092,-5.9086,-5.9078,-5.909,-5.9099,-5.9106,-5.9122,-5.9129,-5.9143,-5.9106,-5.9059,-5.9171,-5.9098,-5.9159,-5.916,-5.9183,-5.9182,-5.9382,-5.9194,-5.9194,-5.9193,-5.9193,0,-5.9139,-5.9191,-5.9141,-5.9174,-5.9231,-5.9186,-5.9244,-5.9231,-5.9226,-5.9256,-5.9202,-5.9231,-5.9182,-5.9207,-5.918,-5.9233,-5.9238,-5.9226,-5.9218,-5.923,-5.9231,-5.9235,-5.9225,-5.9198,-5.9197,-5.9196,-5.9195,0,-5.9297,-5.9265,-5.932,-5.93,-5.9296,-5.934,-5.9322,-5.9353,-5.9332,-5.9371,-5.9377,-5.9345,-5.9372,-5.9338,-5.9361,-5.9343,-5.9416,-5.9396,-5.9417,-5.9411,-5.9473,-5.9467,-5.9681,-5.9706,-5.9504,-5.9506,-5.9508,0,-5.9391,-5.943,-5.9415,-5.9431,-5.9429,-5.9456,-5.9467,-5.9425,-5.944,-5.9441,-5.9471,-5.9494,-5.9509,-5.9556,-5.9534,-5.9553,-5.9532,-5.9606,-5.9534,-5.9545,-5.9532,-5.9529,-5.9533,-5.9619,-5.9622,-5.9624,-5.9625,0,-5.956,-5.9544,-5.9563,-5.9578,-5.9594,-5.9604,-5.9609,-5.9626,-5.9582,-5.9602,-5.9629,-5.9641,-5.9667,-5.969,-5.9703,-5.9698,-5.9655,-5.9649,-5.9663,-5.9675,-5.9686,-5.968,-5.9455,-5.9643,-5.9641,-5.964,-5.9639,-5.9638,-5.9688,-5.972,-5.9715,-5.9739,-5.974,-5.9747,-5.9775,-5.9759,-5.978,-5.9797,-5.9772,-5.9806,-5.9804,-5.9817,-5.9817,-5.9844,-5.9812,-5.9834,-5.9839,-5.9845,-5.9854,-5.9684,-5.9847,-5.9846,-5.9845,-5.9845,-5.9845,0,-5.9854,-5.9849,-5.9871,-5.9881,-5.9901,-5.9861,-5.9866,-5.9884,-5.9915,-5.9917,-5.9934,-5.9966,-5.999,-5.9972,-5.9991,-6.0016,-5.9997,-6.0023,-6.0019,-6.0019,-5.9881,-5.9866,-6.0038,-6.0038,-6.0038,-6.0038,-6.0038,-6.0038,-5.9942,-5.9995,-5.9978,-6.0032,-6.0026,-6.0059,-6.0065,-6.0072,-6.0073,-6.0112,-6.0131,-6.012,-6.0114,-6.0133,-6.0153,-6.0148,-6.0157,-6.0189,-6.0177,-6.0048,-6.0029,-6.001,-5.9996,-6.0192,-6.0192,-6.0312,-6.0313,-6.0314]},{"header":{"parameterUnit":"m.s-1","parameterCategory":1,"la1":30.2991,"la2":30.254,"lo1":-89.0895,"lo2":-89.0444,"dy":0.0017,"dx":0.0017,"nx":28,"ny":28,"refTime":"2025-06-02T21:00:00:Z","depth":0,"parameterNumber":3,"parameterNumberName":"V-component_of_WINDS"},"data":[0,0,0,0,0,0,0,0,0,0,0,0,0,0,0,0,0,0,0,0,0,0,0,0,0,0,0,0,0,0,0,0,0,0,0,0,0,0,0,0,0,0,0,0,0,0,0,0,0,0,0,0,0,0,0,0,0,0,2.8315,2.8315,0,2.8345,2.8345,2.8346,2.8391,2.8392,2.8393,2.8394,2.842,2.842,2.842,0,0,0,0,0,0,0,0,0,0,0,0,0,2.8293,2.8293,2.8314,2.8315,2.8315,2.8345,2.8345,2.8346,2.8391,2.8392,2.8393,2.8394,2.842,2.842,2.842,0,0,0,0,0,0,0,0,0,0,0,0,0,2.8311,2.8293,2.8314,2.8342,2.8344,2.8345,2.8345,2.8346,2.8391,2.8392,2.8393,2.8395,2.842,2.842,2.842,2.8394,0,0,2.842,2.8419,0,0,0,0,0,0,0,0,2.831,2.8311,2.8337,2.834,2.8343,2.8366,2.8347,2.8362,2.8391,2.8373,2.8394,2.8395,2.8401,2.8402,2.8405,2.8396,2.8397,2.842,2.8419,2.8419,2.8419,0,0,0,0,0,0,0,2.8308,2.831,2.8326,2.8338,2.8341,2.8351,2.8355,2.835,2.8379,2.8375,2.8378,2.8381,2.8402,2.8405,2.8406,2.8397,2.842,2.8419,2.8419,2.8419,2.837,2.8368,0,0,0,0,0,0,2.8304,2.8309,2.8325,2.8327,2.8329,2.8351,2.8355,2.8357,2.838,2.8384,2.838,2.8383,2.8405,2.8406,2.8407,2.8379,2.8419,2.8419,2.8419,2.8371,2.8369,2.8368,0,0,0,0,0,0,2.8303,2.8305,2.8324,2.8319,2.8322,2.835,2.8352,2.8357,2.836,2.8384,2.8389,2.8378,2.8406,2.8407,2.8398,2.8381,2.8419,2.8419,2.8372,2.837,2.8369,2.8323,0,0,0,0,0,0,2.8302,2.8304,2.8295,2.8319,2.8323,2.8315,2.8351,2.8357,2.836,2.8364,2.8383,2.8387,2.8407,2.8398,2.8398,2.8381,2.8419,2.8374,2.8371,2.8369,2.8326,2.832,2.8314,0,0,0,0,0,2.8301,2.828,2.8295,2.8296,2.8312,2.8314,2.8316,2.8341,2.8358,2.8349,2.8365,2.8387,2.8383,2.8396,2.8397,2.838,2.8375,2.8372,2.8369,2.8329,2.8321,2.8315,0,0,0,0,0,0,2.8251,2.8283,2.83,2.8286,2.8297,2.8322,2.8311,2.8331,2.8337,2.834,2.8369,2.8373,2.836,2.8369,2.8383,2.8357,2.8382,2.8379,2.8351,2.8344,2.8338,2.8336,2.8419,0,0,0,0,0,2.8239,2.8239,2.8267,2.8252,2.8257,2.8283,2.8285,2.8303,2.8315,2.8319,2.8334,2.8344,2.8346,2.8346,2.8348,2.8328,2.8333,2.8317,2.8311,2.8306,2.8303,2.8294,2.8287,2.8359,2.8359,2.8359,0,0,2.8213,2.8231,2.8228,2.8242,2.8253,2.8252,2.8286,2.8283,2.8282,2.8318,2.8311,2.8322,2.8335,2.8321,2.8315,2.8328,2.8285,2.8303,2.8299,2.8298,2.829,2.8283,2.8277,2.8357,2.8357,2.8357,0,0,2.8165,2.8178,2.8168,2.8179,2.8196,2.8214,2.8211,2.8234,2.8243,2.8237,2.8264,2.8263,2.8264,2.8273,2.8277,2.8235,2.8254,2.8235,2.8203,2.8194,2.8188,2.8184,2.8168,2.8162,2.8232,2.8232,2.8231,0,2.813,2.813,2.8159,2.8155,2.816,2.8196,2.8185,2.8193,2.8209,2.8211,2.8227,2.8231,2.8242,2.823,2.822,2.8222,2.822,2.8232,2.8187,2.8183,2.8178,2.8164,2.8158,2.8229,2.8229,2.823,2.823,0,2.8086,2.8086,2.8075,2.8092,2.8096,2.8088,2.8116,2.8116,2.8135,2.8151,2.8144,2.8159,2.8166,2.8164,2.8181,2.8155,2.8163,2.8182,2.8208,2.8169,2.8156,2.815,2.8225,2.8226,2.8227,2.8228,0,0,2.8005,2.8041,2.8036,2.8045,2.8067,2.8067,2.8061,2.807,2.8069,2.808,2.8075,2.8077,2.8095,2.81,2.8119,2.8111,2.8076,2.8131,2.8132,2.812,2.8048,2.8033,2.8027,2.809,2.8089,2.8089,2.8047,0,2.7961,2.7954,2.7981,2.7967,2.7967,2.8002,2.7997,2.8009,2.8025,2.8026,2.8043,2.8044,2.8068,2.8072,2.8065,2.8082,2.8062,2.8085,2.8085,2.8084,2.808,2.802,2.8003,2.7964,2.8042,2.8042,2.8041,0,2.7908,2.7918,2.7904,2.7929,2.793,2.7925,2.7936,2.7937,2.7952,2.7964,2.7971,2.7993,2.7988,2.8014,2.8008,2.8023,2.8025,2.8033,2.8032,2.8032,2.8059,2.8017,2.7952,2.7945,2.8033,2.8034,2.8034,0,2.785,2.786,2.7854,2.786,2.7888,2.7884,2.7896,2.7913,2.7916,2.7925,2.7928,2.7935,2.7939,2.7944,2.7968,2.7984,2.7958,2.7986,2.7967,2.7966,2.7959,2.7959,2.7891,2.7961,2.7961,2.7961,2.7961,0,2.7797,2.7787,2.7828,2.7824,2.7814,2.7845,2.7834,2.7849,2.7864,2.7862,2.7892,2.789,2.7922,2.7923,2.7941,2.7933,2.7935,2.7943,2.7948,2.794,2.7939,2.7941,2.7944,2.796,2.796,2.796,2.7961,0,2.773,2.7758,2.7753,2.7781,2.7788,2.7779,2.7803,2.78,2.7819,2.7816,2.7818,2.7846,2.7849,2.7873,2.7881,2.7894,2.7878,2.7888,2.7873,2.7876,2.7856,2.7857,2.7787,2.7779,2.7854,2.7853,2.7853,0,2.7695,2.7688,2.7717,2.7719,2.773,2.7733,2.7737,2.7768,2.7772,2.779,2.7784,2.779,2.7797,2.78,2.782,2.7826,2.7837,2.7812,2.7837,2.783,2.7836,2.7836,2.7835,2.7805,2.7804,2.7804,2.7803,0,2.7628,2.7642,2.7649,2.766,2.7666,2.7676,2.7688,2.7687,2.7721,2.7724,2.7728,2.7733,2.7743,2.7748,2.7759,2.7769,2.7791,2.7795,2.7791,2.7782,2.7774,2.7778,2.7857,2.7796,2.7797,2.7797,2.7798,2.7798,2.7575,2.7572,2.7592,2.7598,2.7611,2.7622,2.7621,2.764,2.7645,2.7656,2.7674,2.7676,2.7692,2.7709,2.7718,2.772,2.7732,2.7726,2.7725,2.7723,2.7718,2.7775,2.7721,2.7722,2.7722,2.7722,2.7722,0,2.751,2.7525,2.7531,2.7548,2.7553,2.7576,2.7591,2.7593,2.7595,2.761,2.7616,2.7622,2.7627,2.7649,2.7657,2.7654,2.7664,2.7655,2.7655,2.7657,2.7707,2.7709,2.7646,2.7646,2.7646,2.7647,2.7647,2.7647,2.7477,2.7472,2.7489,2.7491,2.7506,2.751,2.7516,2.7526,2.7538,2.7543,2.7549,2.7564,2.7581,2.7591,2.7597,2.7603,2.7604,2.7591,2.7601,2.7646,2.7653,2.766,2.7663,2.7592,2.7591,2.7551,2.7551,2.755]}]]